Погода в Понтонном

Россия / Санкт-Петербург и Ленинградская область     59°46′57″N   30°38′11″E
темп.,
°C
ветер,
м/с
пор.,
м/с
влажн.,
%
обл.,
%
осадки,
мм/ч
давл.,
гПа
погр.,
м
27 ноября, сб
сб2700:00−2зсз1193100 0.0 100251
03:00−2св2385100 0.0 1003196
06:00−3св248293 0.0 1004238
09:00−3св2779100 0.0 1005417
12:00−1всв3872100 0.0 1005637
15:00−2св51077100 0.0 1004675
18:00−2св51272100 0.0 1002676
21:00−2св61378100 0.1 1001677
28 ноября, вс
вс2800:00−2св61493100 0.9 999750
03:00−2св61393100 1.9 999738
06:00−2св51294100 0.9 998817
09:00−2св51194100 1.8 999790
12:00−2св41094100 1.4 1000763
15:00−3ссв3995100 2.9 1001729
18:00−3ссв399495 0.6 1003725
21:00−4св3894100 0.9 1005716
29 ноября, пн
пн2900:00−5в269592 0.2 1008387
03:00−6в389098 0.3 1009359
06:00−7всв3890100 0.0 1009345
09:00−7всв31088100 0.0 1009409
12:00−6всв4985100 0.0 1007413
15:00−7всв4986100 0.0 1005390
18:00−7всв41189100 0.0 1001410
21:00−6св41293100 0.7 997459
30 ноября, вт
вт3000:00−5св51194100 1.1 993510
03:00−5св51194100 3.1 989525
06:00−4св41094100 1.3 985550
09:00−4ссв4995100 2.9 982651
12:00−3с4995100 1.3 981713
15:00−4ссз4995100 2.3 980642
18:00−6сз4992100 0.8 981499
21:00−7зсз499065 0.8 982423
1 декабря, ср
ср100:00−8зсз3108841 0.0 983351
03:00−6з399499 0.2 983565
06:00−6зюз3894100 0.4 984479
09:00−6зюз4993100 0.9 985482
12:00−6юз4993100 0.9 986580
15:00−5зюз3894100 2.3 987594
18:00−6юз4993100 1.1 987652
21:00−6юз399599 1.8 987451